Easton, MD

5:17 PM EDT on September 16, 2019 (GMT -0400)
Easton / Newnam

Weather History for KESN - July, 2019

Change the Weather History Date:

Monday, July 22, 2019

  Actual Average Record
Temperature  
Mean Temperature 86 °F -  
Max Temperature 96 °F 88 °F 102 °F (2011)
Min Temperature 75 °F 66 °F 54 °F (1950)
Cooling Degree Days 20    
Growing Degree Days 36 (Base 50)    
Moisture  
Dew Point 73 °F    
Average Humidity 72    
Maximum Humidity 94    
Minimum Humidity 47    
Precipitation  
Precipitation 0.00 in - - ()
Sea Level Pressure  
Sea Level Pressure 29.87 in    
Wind  
Wind Speed 3 mph (SW)    
Max Wind Speed 16 mph    
Max Gust Speed 23 mph    
Visibility 10 miles    
Events Rain    
Averages and records for this station are not official NWS values.
T = Trace of Precipitation, MM = Missing Value Source: NWS Daily Summary

Daily Weather History Graph

Daily Weather History Graph

Search for Another Location

Airport or City:

Astronomy

Jul. 22, 2019 Rise Set
Actual Time 5:56 AM EDT 8:24 PM EDT
Civil Twilight 5:26 AM EDT 8:54 PM EDT
Nautical Twilight 4:48 AM EDT 9:32 PM EDT
Astronomical Twilight 4:06 AM EDT 10:14 PM EDT
Moon 11:47 PM EDT (7/22) 11:08 AM EDT (7/22)
Length of Visible Light 15h 28m
Length of Day
14h 27m
Waning Gibbous, 72% of the Moon is Illuminated
Jul 22
Waning Gibbous
Jul 24
Last Quarter
Jul 31
New
Aug 7
First Quarter
Aug 15
Full

Hourly Weather History & Observations

Time (EDT) Temp. Heat Index Dew Point Humidity Pressure Visibility Wind Dir Wind Speed Gust Speed Precip Events Conditions
12:00 AM 84.0 °F 90.8 °F 73.6 °F 71% 29.90 in 10.0 mi SW 3.5 mph - N/A   Clear
12:20 AM 82.8 °F 89.5 °F 74.5 °F 76% 29.90 in 10.0 mi Calm Calm - N/A   Clear
12:40 AM 81.1 °F 86.8 °F 74.5 °F 80% 29.91 in 10.0 mi Calm Calm - N/A   Clear
1:00 AM 81.7 °F 87.8 °F 74.5 °F 79% 29.91 in 10.0 mi WNW 3.5 mph - N/A   Clear
1:20 AM 80.2 °F 85.2 °F 74.5 °F 83% 29.92 in 10.0 mi Calm Calm - N/A   Clear
1:40 AM 80.8 °F 86.1 °F 74.5 °F 81% 29.92 in 10.0 mi Calm Calm - N/A   Clear
2:00 AM 81.5 °F 87.2 °F 74.1 °F 78% 29.92 in 10.0 mi Calm Calm - N/A   Clear
2:20 AM 80.2 °F 84.9 °F 73.9 °F 81% 29.92 in 10.0 mi Calm Calm - N/A   Clear
2:40 AM 79.9 °F - 73.9 °F 82% 29.92 in 10.0 mi Calm Calm - N/A   Clear
3:00 AM 79.0 °F - 74.1 °F 85% 29.92 in 10.0 mi Calm Calm - N/A   Clear
3:20 AM 79.7 °F - 74.1 °F 83% 29.91 in 10.0 mi Calm Calm - N/A   Clear
3:40 AM 78.1 °F - 73.9 °F 87% 29.91 in 10.0 mi Calm Calm - N/A   Clear
4:00 AM 77.9 °F - 73.9 °F 88% 29.90 in 10.0 mi Calm Calm - N/A   Clear
4:20 AM 77.5 °F - 73.9 °F 89% 29.90 in 10.0 mi Calm Calm - N/A   Clear
4:40 AM 77.2 °F - 73.9 °F 90% 29.90 in 10.0 mi Calm Calm - N/A   Clear
5:00 AM 77.4 °F - 73.9 °F 89% 29.90 in 10.0 mi Calm Calm - N/A   Clear
5:20 AM 76.8 °F - 73.8 °F 90% 29.90 in 10.0 mi Calm Calm - N/A   Clear
5:40 AM 77.2 °F - 73.8 °F 89% 29.90 in 10.0 mi Calm Calm - N/A   Clear
5:41 AM 77.0 °F - 73.6 °F 89% 29.90 in 10.0 mi Calm Calm - N/A   Clear
5:46 AM 75.2 °F - 73.4 °F 94% 29.91 in 10.0 mi Calm Calm - N/A   Clear
6:50 AM 77.0 °F - 75.2 °F 94% 29.90 in 10.0 mi Calm Calm - N/A   Clear
7:50 AM 82.4 °F 90.9 °F 77.0 °F 84% 29.90 in 10.0 mi Calm Calm - N/A   Clear
8:50 AM 87.8 °F 97.6 °F 75.2 °F 66% 29.89 in 10.0 mi South 8.1 mph - N/A   Clear
9:45 AM 89.6 °F 98.2 °F 73.4 °F 59% 29.88 in 10.0 mi SSW 10.4 mph - N/A   Clear
10:55 AM 91.4 °F 100.1 °F 73.4 °F 55% 29.88 in 10.0 mi SW 9.2 mph - N/A   Clear
11:45 AM 91.4 °F 102.5 °F 75.2 °F 59% 29.87 in 10.0 mi SSW 11.5 mph - N/A   Partly Cloudy
12:45 PM 93.2 °F 105.0 °F 75.2 °F 56% 29.86 in 10.0 mi South 16.1 mph - N/A   Partly Cloudy
1:50 PM 93.2 °F 107.2 °F 77.0 °F 59% 29.83 in 10.0 mi SSW 12.7 mph - N/A   Partly Cloudy
2:45 PM 93.2 °F 105.0 °F 75.2 °F 56% 29.82 in 10.0 mi SSW 11.5 mph 21.9 mph N/A   Partly Cloudy
3:50 PM 96.8 °F 107.3 °F 73.4 °F 47% 29.79 in 10.0 mi SW 12.7 mph 23.0 mph N/A   Partly Cloudy
4:46 PM 95.0 °F 104.5 °F 73.4 °F 49% 29.78 in 10.0 mi SSW 13.8 mph 20.7 mph N/A   Scattered Clouds
5:46 PM 91.4 °F 100.1 °F 73.4 °F 55% 29.79 in 10.0 mi SW 11.5 mph - N/A   Scattered Clouds
6:50 PM 84.2 °F 90.9 °F 73.4 °F 70% 29.80 in 10.0 mi NW 5.8 mph - N/A   Mostly Cloudy
7:50 PM 84.2 °F 90.9 °F 73.4 °F 70% 29.82 in 10.0 mi Calm Calm - N/A   Mostly Cloudy
8:50 PM 82.4 °F 88.2 °F 73.4 °F 74% 29.83 in 10.0 mi Calm Calm - N/A   Mostly Cloudy
9:46 PM 86.0 °F 88.2 °F 66.2 °F 51% 29.83 in 10.0 mi WSW 6.9 mph 19.6 mph N/A   Mostly Cloudy
10:20 PM 85.5 °F 87.9 °F 66.7 °F 53% 29.84 in 10.0 mi WSW 5.8 mph - N/A   Clear
10:40 PM 85.1 °F 87.9 °F 67.1 °F 55% 29.83 in 10.0 mi SW 11.5 mph 16.1 mph N/A   Clear
11:00 PM 84.0 °F 85.8 °F 65.3 °F 53% 29.84 in 10.0 mi SW 11.5 mph 18.4 mph N/A   Clear
11:20 PM 82.4 °F 85.0 °F 67.5 °F 60% 29.83 in 10.0 mi SW 6.9 mph - N/A Rain Light Rain
11:40 PM 81.9 °F 84.8 °F 68.4 °F 63% 29.82 in 10.0 mi SW 5.8 mph - N/A   Clear